Tracking 35275 objects as of 9-Sep-2026
HD Live streaming from Space Station
objects crossing your sky now

STARLINK-34029

Track STARLINK-34029 now!
10-day predictions
STARLINK-34029 is classified as:


NORAD ID: 63805
Int'l Code: 2025-092B
Launch date: May 4, 2025
Source: United States (US)
Launch site: AIR FORCE EASTERN TEST RANGE (AFETR)
Your satellite tracking list
Your tracking list is empty




NASA's NSSDC Master Catalog

Two Line Element Set (TLE):
1 63805U 25092B   26251.26888382  .00013211  00000-0  48841-3 0  9997
2 63805  42.9998 221.7914 0001412 268.2876  91.7814 15.27602048 76534
Source of the keplerian elements: AFSPC